Location: Hauteville
(46.6702°N, 7.1077°E)
Time: 05:16:04
(UTC+00:00)

Daily predictions for brighter satellites

Satellite Brightness Start Highest point End
(mag) Time Altitude Azimuth Time Altitude Azimuth Time Altitude Azimuth
Okean 1 Rocket 4.2 00:09:30 39° NE 00:09:30 39° NE 00:12:30 10° NNE
SJ 16-02 2.7 00:09:53 35° NE 00:09:53 35° NE 00:12:42 10° NNE
Okean 2 Rocket 4.3 00:10:41 39° NW 00:10:41 39° NW 00:13:56 10° N
SL-16 R/B 2.2 00:08:19 10° NNW 00:13:48 82° N 00:13:48 82° N
Cosmos 2263 Rocket 4.0 00:14:58 19° E 00:14:59 19° E 00:18:42 10° ENE
Meteor 2-13 Rocket 4.3 00:11:12 10° NNW 00:17:19 74° W 00:17:19 74° W
Cosmos 1428 Rocket 4.3 00:12:11 10° N 00:18:30 88° E 00:18:53 80° SSE
Cosmos 990 Rocket 4.5 00:29:47 51° E 00:29:47 51° E 00:34:19 10° NNE
Cosmos 2297 Rocket 2.7 00:28:55 48° WNW 00:29:22 49° WNW 00:34:51 10° NNE
Cosmos 158 Rocket 4.1 00:24:54 10° NNW 00:29:59 79° N 00:29:59 79° N
ADEOS II 4.3 00:29:16 10° ENE 00:31:57 14° E 00:33:36 12° ESE
Cosmos 2344 4.5 00:23:58 10° NW 00:33:35 61° WSW 00:38:10 42° S
Cosmos 1455 Rocket 4.5 00:35:30 31° E 00:35:30 31° E 00:39:05 10° NNE
Cosmos 1092 Rocket 4.3 00:30:39 10° NNW 00:36:34 49° W 00:36:34 49° W
Cosmos 2112 Rocket 4.0 00:31:54 10° NNW 00:36:46 77° N 00:36:46 77° N
USA 229 DEB 3.7 00:36:45 58° SE 00:37:10 59° ESE 00:43:52 10° NE
USA 229 3.7 00:36:53 58° SE 00:37:17 59° ESE 00:43:57 10° NE
Cosmos 2219 4.2 00:41:47 33° WNW 00:42:47 35° NW 00:47:56 10° NNE
Cosmos 2237 Rocket 3.9 00:38:41 10° NW 00:41:12 19° WNW 00:41:12 19° WNW
Meteor 1-15 Rocket 4.3 00:43:08 64° WNW 00:43:08 64° WNW 00:48:42 10° N
Cosmos 1898 Rocket 3.6 00:43:57 65° E 00:43:57 65° E 00:48:51 10° NNE
Cosmos 1892 Rocket 4.1 00:44:01 10° N 00:47:51 57° NE 00:47:51 57° NE
NOSS 3-1 (A) 3.7 00:48:36 49° ESE 00:48:37 49° ESE 00:54:36 10° NE
Meteor 1-24 Rocket 3.5 00:43:36 10° N 00:49:01 83° ENE 00:49:06 82° E
Cosmos 1680 Rocket 3.8 00:47:08 10° NNW 00:51:28 55° WNW 00:51:28 55° WNW
Cosmos 1603 4.3 00:48:58 10° NNW 00:54:36 54° ENE 00:57:17 30° ESE
Cosmos 1461 3.7 00:55:29 51° NNW 00:55:29 51° NNW 00:59:34 10° NNE
DELTA 2 DEB (DPAF) 4.3 01:05:02 66° NNW 01:05:02 66° NNW 01:08:54 10° NNW
Cosmos 1340 Rocket 3.7 01:07:07 45° ENE 01:07:07 45° ENE 01:10:16 10° NNE
CZ-2D R/B 2.3 01:01:47 10° NNE 01:07:16 65° ESE 01:08:00 58° SE
Cosmos 1758 4.2 01:08:43 44° ENE 01:08:43 44° ENE 01:12:06 10° NNE
Timation 1 Rocket 4.2 01:10:12 67° S 01:11:01 80° ESE 01:17:01 10° NNE
SL-16 R/B 2.4 01:09:26 54° SSE 01:11:02 89° W 01:17:19 10° NNW
Cosmos 1943 3.5 01:07:37 10° NNW 01:13:12 62° ENE 01:16:09 28° SE
Cosmos 1626 3.9 01:13:27 10° NNW 01:15:17 26° NW 01:15:17 26° NW
Cosmos 1655 Rocket 3.9 01:11:05 10° NNW 01:17:19 74° W 01:18:27 59° SSW
Cosmos 2227 Rocket 3.7 01:18:31 23° WNW 01:20:18 27° NW 01:25:05 10° N
Cosmos 2292 Rocket 4.2 01:14:02 10° N 01:21:05 79° W 01:22:07 61° SSW
Cosmos 1544 Rocket 3.6 01:22:37 70° E 01:22:39 70° E 01:27:07 10° NNE
Cosmos 1470 3.1 01:24:18 64° NNE 01:24:18 64° NNE 01:27:44 10° N
Cosmos 1953 3.5 01:23:54 35° ESE 01:24:12 36° E 01:27:56 10° NNE
IRS-1D 4.3 01:19:21 10° NNE 01:24:14 43° E 01:25:39 35° SE
Meteor 2-5 Rocket 4.3 01:20:11 10° NNW 01:25:04 38° W 01:25:04 38° W
Meteor 1-22 Rocket 4.2 01:25:04 55° W 01:25:28 57° WNW 01:30:48 10° N
NPP 3.6 01:20:39 10° NNE 01:26:05 79° ESE 01:27:05 60° S
Helios 1B rocket 4.3 01:23:16 10° NNW 01:25:58 21° NW 01:25:58 21° NW
Cosmos 2279 Rocket 4.4 01:29:43 41° WSW 01:30:48 45° WNW 01:36:45 10° N
Cosmos 858 Rocket 4.5 01:32:00 61° WSW 01:32:40 68° WNW 01:37:57 10° NNE
AQUA 3.8 01:29:01 10° NNE 01:33:49 76° ESE 01:34:26 64° SSE
Atlas Centaur 2 4.4 01:38:02 13° SE 01:38:02 13° SE 01:39:52 10° SE
Exosat Rocket 4.2 01:36:53 42° SSW 01:39:50 88° WNW 01:45:52 10° NNE
Resurs 1-4 Rocket 2.1 01:35:26 10° N 01:40:40 67° WNW 01:41:36 55° WSW
Cosmos 1602 Rocket 3.8 01:39:04 10° N 01:43:23 64° E 01:44:26 47° SE
Cosmos 2098 Rocket 4.0 01:39:16 10° NNW 01:44:50 59° W 01:46:32 45° SW
NOSS 2-3 (E) 3.7 01:44:49 61° W 01:45:22 69° NW 01:50:30 10° NE
Cosmos 2227 4.2 01:44:00 52° SW 01:45:28 81° WNW 01:51:17 10° NNE
SJ 16-02 3.1 01:46:52 20° WNW 01:47:18 20° NW 01:50:36 10° N
USA 267 4.4 01:42:43 10° E 01:48:47 42° NNE 01:54:50 10° NW
IDEFIX/ARIANE 42P 4.5 01:44:59 10° NE 01:49:09 24° E 01:53:19 10° SE
Meteor 2-14 Rocket 4.4 01:43:12 10° N 01:49:18 81° E 01:52:41 28° SSE
NOSS 3-1 (C) 4.0 01:48:09 33° W 01:50:23 49° NW 01:56:45 10° NE
Cosmos 1048 Rocket 4.2 01:51:26 10° NNW 01:56:36 70° ENE 02:01:22 12° SSE
SL-16 R/B 4.2 01:54:11 10° WNW 01:55:38 14° WNW 01:55:38 14° WNW
Cosmos 1908 4.3 01:56:15 31° SE 01:57:27 39° E 02:01:07 10° NNE
Cosmos 2263 Rocket 2.2 01:56:40 47° SW 01:58:16 72° WNW 02:03:51 10° NNE
Cosmos 2298 Rocket 4.1 01:57:57 43° S 01:59:43 76° ESE 02:05:04 10° NNE
Meteor 1-16 Rocket 4.4 02:01:58 31° S 02:04:35 68° E 02:10:11 10° NNE
Cosmos 372 Rocket 4.0 02:04:37 46° SW 02:06:08 72° WNW 02:11:25 10° NNE
Meteor 1-28 Rocket 3.8 02:06:34 26° SE 02:08:28 57° ENE 02:12:13 10° N
Cosmos 1937 Rocket 4.4 02:07:18 30° W 02:08:49 36° WNW 02:13:43 10° N
COBE Rocket 3.9 02:08:32 48° SW 02:09:09 51° W 02:13:42 10° NNW
SL-08 R/B 3.6 02:05:26 17° SSE 02:09:19 71° ENE 02:14:15 10° N
NOSS 2-3 (D) 4.3 02:08:30 37° W 02:09:49 49° NW 02:14:52 10° NNE
ADEOS II 2.0 02:07:02 10° NNE 02:12:20 85° WNW 02:14:31 37° SSW
Cosmos 1626 Rocket 3.8 02:08:37 10° NNW 02:12:46 47° W 02:13:03 46° WSW
Cosmos 1455 Rocket 4.3 02:12:38 26° W 02:12:57 27° WNW 02:16:45 10° NNW
Cosmos 2285 Rocket 4.0 02:10:59 32° SSW 02:14:09 82° ESE 02:20:29 10° NNE
Cosmos 1726 2.4 02:14:19 49° WNW 02:14:19 49° WNW 02:17:53 10° N
ATLAS CENTAUR R/B 1.2 02:13:46 56° SSW 02:14:33 79° SE 02:18:29 10° NE
CZ-4B R/B 3.4 02:10:33 10° N 02:15:15 61° WNW 02:16:40 41° SW
Cosmos 1553 Rocket 4.2 02:15:29 19° S 02:19:53 67° E 02:25:59 10° NNE
Cosmos 1844 Rocket 3.6 02:17:42 18° SSE 02:21:23 41° ESE 02:26:35 10° NE
GEOS 3 Rocket 4.1 02:20:24 10° NNE 02:25:39 53° NW 02:28:25 27° WSW
CBERS-1 4.2 02:24:02 10° N 02:29:02 55° WNW 02:31:10 32° SW
Meteor 1-21 Rocket 4.4 02:23:57 10° NNW 02:29:15 48° W 02:31:40 29° SSW
Cosmos 2084 3.5 02:28:47 39° WSW 02:30:20 71° NW 02:34:49 10° NE
Cosmos 1745 Rocket 4.3 02:24:26 10° N 02:30:42 67° ENE 02:36:51 10° SSE
ARIANE 5 R/B 2.6 02:27:28 10° NNE 02:32:44 80° ESE 02:36:11 22° S
NOSS 8 (E) 4.0 02:32:47 60° SW 02:33:17 88° SE 02:36:19 10° NE
Cosmos 1758 Rocket 3.4 02:31:19 10° NNW 02:35:39 72° W 02:38:14 23° S
ERS-1 4.4 02:32:51 10° NNE 02:37:51 89° ESE 02:41:00 23° SSW
NOSS 3-1 (A) 4.3 02:36:02 20° W 02:39:39 40° NW 02:45:53 10° NNE
SL-08 R/B 4.4 02:33:39 10° N 02:39:54 80° W 02:46:11 10° S
Cosmos 494 Rocket 3.9 02:39:49 10° NNW 02:44:59 73° WSW 02:50:10 10° SSE
Cosmos 2150 Rocket 4.3 02:42:28 27° SW 02:45:01 51° WNW 02:50:11 10° NNE
Cosmos 2058 Rocket 4.1 02:41:49 10° SSE 02:46:04 45° E 02:50:19 10° NNE
CZ-2D R/B 3.7 02:42:43 10° N 02:46:49 22° WNW 02:49:19 16° W
H-2A R/B 2.6 02:43:18 10° SSE 02:47:18 55° ENE 02:51:20 10° N
Cosmos 1703 3.7 02:47:23 10° NNW 02:51:08 41° W 02:52:42 28° SW
S3M 4.1 02:45:35 11° S 02:51:42 85° E 02:58:07 10° N
CZ-2C R/B 4.3 02:49:14 10° NE 02:53:08 26° E 02:57:04 10° SSE
Cosmos 1825 Rocket 3.6 02:49:56 10° NNW 02:54:11 58° W 02:57:30 16° S
SL-16 R/B 4.1 02:54:31 15° W 02:55:28 16° W 02:59:08 10° NW
Landsat 5 3.9 02:52:16 10° SSE 02:56:14 64° ENE 03:00:22 10° N
Cosmos 1943 4.3 02:52:33 10° NW 02:56:46 22° W 02:57:52 21° WSW
Cosmos 1125 Rocket 3.6 02:54:00 23° SW 02:57:14 61° WNW 03:02:30 10° NNE
USA 215 3.4 02:52:10 10° NE 02:58:43 70° SE 03:03:50 17° SW
Cosmos 1953 3.9 02:59:36 18° W 03:00:43 20° WNW 03:03:48 10° NNW
SL-24 R/B 4.4 02:58:12 10° SSE 03:03:35 86° WSW 03:08:12 10° NNW
Cosmos 1328 4.5 03:01:18 10° NNW 03:04:57 35° W 03:07:01 21° SW
CZ-4B R/B 4.2 03:02:48 10° ESE 03:05:13 20° ENE 03:07:36 10° NNE
Cosmos 1953 Rocket 3.6 03:01:13 10° NNW 03:05:41 66° W 03:10:05 10° S
CZ-2D R/B 3.5 03:06:02 10° N 03:09:58 58° WNW 03:12:52 17° SSW
Cosmos 1709 Rocket 4.2 03:04:19 10° N 03:10:31 75° E 03:16:37 10° SSE
Resurs 1-4 Rocket 4.2 03:17:47 10° NNW 03:19:31 12° NW 03:21:13 10° WNW
USA 238 DEB 4.4 03:13:49 10° NW 03:20:57 64° NE 03:28:22 10° SE
USA 238 4.4 03:13:55 10° NW 03:21:03 63° NE 03:28:27 10° SE
Cosmos 1606 Rocket 4.2 03:19:24 16° SW 03:22:39 39° WNW 03:26:52 10° N
Atlas Centaur 2 4.1 03:20:39 13° SW 03:24:27 20° S 03:29:42 10° SE
NOSS 2-2 (E) 3.1 03:22:45 16° SW 03:25:30 77° NW 03:29:34 10° NE
NOSS 2-2 (D) 3.1 03:23:29 15° SW 03:26:23 85° SE 03:30:20 10° NE
CENTAUR R/B 4.1 03:19:25 10° NW 03:27:07 53° NE 03:35:37 10° ESE
IDEFIX/ARIANE 42P 2.9 03:23:59 10° N 03:29:01 50° WNW 03:34:03 10° SW
USA 267 3.4 03:24:49 10° ESE 03:31:22 83° NE 03:37:57 10° NW
Meteor 2-15 Rocket 4.4 03:28:27 10° SSW 03:34:30 73° W 03:40:36 10° N
MSX 3.9 03:29:13 10° N 03:34:57 67° WNW 03:40:40 10° SSW
PSLV R/B 3.7 03:31:21 10° NNE 03:35:45 78° ESE 03:40:05 10° S
Cosmos 1726 Rocket 4.4 03:33:33 11° SW 03:37:23 35° WNW 03:41:30 10° N
COSMOS 2406 3.9 03:31:50 10° NNW 03:37:30 61° ENE 03:43:06 10° SE
Cosmos 1825 4.3 03:35:36 10° N 03:38:59 30° ENE 03:42:21 10° SE
Cosmos 2228 4.2 03:36:23 12° SW 03:39:43 26° WNW 03:43:28 10° NNW
Cosmos 2315 Rocket 4.1 03:35:01 10° S 03:41:22 82° W 03:47:48 10° N
ADEOS Rocket 4.1 03:34:05 10° SSE 03:41:44 66° ENE 03:49:21 10° N
Cosmos 2263 Rocket 4.1 03:39:52 10° WNW 03:43:15 16° NW 03:46:38 10° N
Cosmos 1844 3.9 03:37:36 10° SW 03:43:20 62° WNW 03:49:04 10° NNE
CZ-2C R/B 3.6 03:45:07 10° N 03:48:35 33° WNW 03:51:58 10° SW
Cosmos 2084 Rocket 4.4 03:44:54 10° NNW 03:49:16 55° NE 03:53:42 10° ESE
Cosmos 1455 3.1 03:45:45 10° S 03:49:30 52° E 03:53:17 10° NNE
deb Chang Zheng 4 4.0 03:45:54 10° NNE 03:50:15 67° ESE 03:54:35 10° S
ADEOS II 4.0 03:48:28 10° NNW 03:51:15 15° NW 03:54:01 10° W
Cosmos 1300 3.8 03:50:02 10° SW 03:53:22 28° WNW 03:56:42 10° NNW
ATLAS CENTAUR R/B 3.3 03:51:10 10° WNW 03:53:53 17° NW 03:56:30 10° N
ERS-2 2.9 03:52:43 10° SSW 03:55:58 31° W 03:59:16 10° NW
TSX-5 4.4 03:54:50 10° S 03:57:50 43° ESE 04:01:00 10° NE
CZ-4C R/B 4.3 03:56:31 10° SW 03:58:59 20° W 04:01:32 10° NW
Cosmos 1400 Rocket 3.4 03:56:51 10° S 04:00:40 59° E 04:04:28 10° NNE
